DHK489 EDDP-LFPG

Flight info

Callsign DHK489
Flight time 1h 15m
Altitude 38000
Route EDDP/08R N0478F380 NEVK2E NEVKO Q243 BAMKI Z94 KOMIB L984 LOHRE DCT BOMBI DCT BETEX DCT TOLVU DCT RAPOR DCT ENORI ENOR9E LFPG/08R
Aircraft B77F/H-V/N

Departure

Time 2026-05-08 19:32
Airport Leipzig/Halle Airport (EDDP)

Arrival

Time 2026-05-08 20:47
Airport Charles de Gaulle International Airport (LFPG)
Time Latitude Longitude Altitude Speed Heading
2026-05-08 19:02 51.40842 12.24530 469 ft 0 kts 266°
2026-05-08 19:19 51.40842 12.24531 469 ft 2 kts 266°
2026-05-08 19:19 51.40844 12.24557 467 ft 2 kts 265°
2026-05-08 19:20 51.40845 12.24584 463 ft 2 kts 264°
2026-05-08 19:20 51.40846 12.24601 462 ft 2 kts 265°
2026-05-08 19:20 51.40846 12.24636 462 ft 2 kts 287°
2026-05-08 19:20 51.40839 12.24660 463 ft 2 kts 315°
2026-05-08 19:21 51.40827 12.24674 463 ft 1 kts 346°
2026-05-08 19:21 51.40822 12.24676 463 ft 0 kts 352°
2026-05-08 19:25 51.40825 12.24675 469 ft 2 kts 352°
2026-05-08 19:25 51.40851 12.24671 469 ft 6 kts 356°
2026-05-08 19:26 51.40906 12.24666 470 ft 10 kts 356°
2026-05-08 19:26 51.40987 12.24657 468 ft 12 kts 355°
2026-05-08 19:26 51.41071 12.24641 473 ft 11 kts 342°
2026-05-08 19:26 51.41130 12.24584 468 ft 10 kts 338°
2026-05-08 19:27 51.41176 12.24509 472 ft 10 kts 278°
2026-05-08 19:27 51.41172 12.24376 467 ft 15 kts 266°
2026-05-08 19:27 51.41163 12.24176 469 ft 21 kts 266°
2026-05-08 19:27 51.41152 12.23943 469 ft 22 kts 265°
2026-05-08 19:28 51.41139 12.23678 472 ft 25 kts 265°
2026-05-08 19:28 51.41128 12.23397 474 ft 25 kts 266°
2026-05-08 19:28 51.41110 12.23116 470 ft 25 kts 266°
2026-05-08 19:28 51.41100 12.22834 465 ft 25 kts 266°
2026-05-08 19:29 51.41087 12.22553 461 ft 25 kts 265°
2026-05-08 19:29 51.41073 12.22271 461 ft 25 kts 265°
2026-05-08 19:29 51.41060 12.21993 460 ft 25 kts 266°
2026-05-08 19:29 51.41047 12.21712 462 ft 25 kts 265°
2026-05-08 19:30 51.41034 12.21431 456 ft 25 kts 266°
2026-05-08 19:30 51.41021 12.21149 452 ft 26 kts 265°
2026-05-08 19:30 51.41006 12.20844 437 ft 25 kts 266°
2026-05-08 19:30 51.41010 12.20698 436 ft 10 kts 299°
2026-05-08 19:31 51.41058 12.20679 433 ft 8 kts 14°
2026-05-08 19:31 51.41107 12.20727 429 ft 10 kts 39°
2026-05-08 19:31 51.41157 12.20796 429 ft 8 kts 41°
2026-05-08 19:31 51.41181 12.20877 447 ft 13 kts 84°
2026-05-08 19:32 51.41199 12.21308 453 ft 78 kts 85°
2026-05-08 19:32 51.41265 12.22648 465 ft 159 kts 85°
2026-05-08 19:32 51.41351 12.24600 1010 ft 179 kts 85°
2026-05-08 19:32 51.41444 12.26594 2050 ft 177 kts 85°
2026-05-08 19:33 51.41550 12.28560 2844 ft 186 kts 85°
2026-05-08 19:33 51.41665 12.30743 3429 ft 199 kts 85°
2026-05-08 19:33 51.41787 12.32932 4283 ft 198 kts 85°
2026-05-08 19:33 51.41901 12.35153 4944 ft 207 kts 86°
2026-05-08 19:34 51.42002 12.37454 5774 ft 205 kts 86°
2026-05-08 19:34 51.42095 12.39771 6460 ft 213 kts 86°
2026-05-08 19:34 51.42188 12.42154 7155 ft 218 kts 86°
2026-05-08 19:34 51.42305 12.44679 7631 ft 235 kts 85°
2026-05-08 19:35 51.42426 12.47322 8332 ft 239 kts 91°
2026-05-08 19:35 51.41960 12.49981 8585 ft 267 kts 123°
2026-05-08 19:35 51.40572 12.52056 9019 ft 284 kts 154°
2026-05-08 19:35 51.38644 12.52784 9813 ft 291 kts 184°
2026-05-08 19:36 51.36706 12.51924 10621 ft 292 kts 213°
2026-05-08 19:36 51.35230 12.49701 11455 ft 294 kts 232°
2026-05-08 19:36 51.33919 12.47047 11904 ft 318 kts 233°
2026-05-08 19:36 51.32473 12.44137 12158 ft 350 kts 232°
2026-05-08 19:37 51.30887 12.41025 12813 ft 367 kts 231°
2026-05-08 19:37 51.29230 12.37855 13817 ft 374 kts 231°
2026-05-08 19:37 51.27532 12.34670 14826 ft 379 kts 231°
2026-05-08 19:37 51.25799 12.31464 15825 ft 383 kts 230°
2026-05-08 19:38 51.24061 12.28277 16800 ft 387 kts 230°
2026-05-08 19:38 51.22277 12.25023 17744 ft 393 kts 230°
2026-05-08 19:38 51.20461 12.21721 18651 ft 398 kts 230°
2026-05-08 19:38 51.18625 12.18393 19459 ft 403 kts 230°
2026-05-08 19:39 51.16761 12.15021 20287 ft 407 kts 230°
2026-05-08 19:39 51.14877 12.11616 21100 ft 411 kts 230°
2026-05-08 19:39 51.12977 12.08186 21898 ft 416 kts 230°
2026-05-08 19:39 51.11046 12.04704 22682 ft 421 kts 230°
2026-05-08 19:40 51.09099 12.01198 23462 ft 425 kts 230°
2026-05-08 19:40 51.07127 11.97652 24146 ft 430 kts 230°
2026-05-08 19:40 51.05133 11.94073 24787 ft 434 kts 230°
2026-05-08 19:40 51.03144 11.90505 25435 ft 438 kts 230°
2026-05-08 19:41 51.01111 11.86865 26093 ft 441 kts 230°
2026-05-08 19:41 50.99063 11.83203 26720 ft 445 kts 230°
2026-05-08 19:41 50.96994 11.79510 27328 ft 449 kts 229°
2026-05-08 19:41 50.94906 11.75788 27921 ft 454 kts 229°
2026-05-08 19:42 50.92876 11.71939 28501 ft 457 kts 235°
2026-05-08 19:42 50.91210 11.67626 29064 ft 460 kts 243°
2026-05-08 19:42 50.89898 11.62994 29623 ft 463 kts 250°
2026-05-08 19:42 50.88928 11.58114 30130 ft 466 kts 254°
2026-05-08 19:43 50.88044 11.53157 30574 ft 468 kts 254°
2026-05-08 19:43 50.87164 11.48179 31127 ft 468 kts 254°
2026-05-08 19:43 50.86282 11.43224 31732 ft 466 kts 254°
2026-05-08 19:43 50.85404 11.38344 32333 ft 464 kts 254°
2026-05-08 19:44 50.84526 11.33518 32881 ft 463 kts 254°
2026-05-08 19:44 50.83628 11.28623 33409 ft 463 kts 254°
2026-05-08 19:44 50.82726 11.23741 33938 ft 462 kts 253°
2026-05-08 19:44 50.81822 11.18871 34422 ft 461 kts 253°
2026-05-08 19:45 50.80915 11.14002 34831 ft 462 kts 253°
2026-05-08 19:45 50.80001 11.09108 35210 ft 462 kts 253°
2026-05-08 19:45 50.79087 11.04229 35598 ft 462 kts 253°
2026-05-08 19:45 50.78174 10.99364 35979 ft 462 kts 253°
2026-05-08 19:46 50.77260 10.94504 36380 ft 461 kts 253°
2026-05-08 19:46 50.76344 10.89649 36749 ft 462 kts 253°
2026-05-08 19:46 50.74515 10.79983 37474 ft 461 kts 253°
2026-05-08 19:47 50.73592 10.75128 37836 ft 461 kts 254°
2026-05-08 19:47 50.72668 10.70275 38092 ft 463 kts 253°
2026-05-08 19:47 50.70791 10.60457 38150 ft 467 kts 253°
2026-05-08 19:48 50.68917 10.50713 38146 ft 461 kts 253°
2026-05-08 19:48 50.67052 10.41063 38153 ft 459 kts 253°
2026-05-08 19:49 50.65185 10.31448 38145 ft 458 kts 253°
2026-05-08 19:49 50.63319 10.21886 38143 ft 459 kts 253°
2026-05-08 19:50 50.61434 10.12275 38145 ft 460 kts 253°
2026-05-08 19:50 50.59533 10.02635 38144 ft 461 kts 253°
2026-05-08 19:51 50.57621 9.92983 38134 ft 462 kts 253°
2026-05-08 19:51 50.55709 9.83380 38141 ft 463 kts 253°
2026-05-08 19:52 50.53774 9.73706 38133 ft 464 kts 253°
2026-05-08 19:52 50.51828 9.64031 38134 ft 464 kts 253°
2026-05-08 19:53 50.49874 9.54364 38132 ft 464 kts 253°
2026-05-08 19:53 50.47908 9.44683 38131 ft 464 kts 253°
2026-05-08 19:54 50.45950 9.35085 38132 ft 464 kts 253°
2026-05-08 19:54 50.43971 9.25434 38132 ft 464 kts 252°
2026-05-08 19:55 50.41985 9.15800 38125 ft 464 kts 252°
2026-05-08 19:55 50.40004 9.06230 38125 ft 464 kts 252°
2026-05-08 19:56 50.38004 8.96617 38123 ft 464 kts 252°
2026-05-08 19:56 50.35994 8.87007 38124 ft 464 kts 252°
2026-05-08 19:57 50.33979 8.77410 38121 ft 464 kts 252°
2026-05-08 19:57 50.31951 8.67800 38118 ft 464 kts 252°
2026-05-08 19:58 50.29918 8.58217 38120 ft 464 kts 252°
2026-05-08 19:58 50.27890 8.48699 38114 ft 464 kts 252°
2026-05-08 19:59 50.25838 8.39112 38114 ft 465 kts 252°
2026-05-08 19:59 50.23777 8.29528 38106 ft 465 kts 252°
2026-05-08 20:00 50.21718 8.20000 38110 ft 465 kts 252°
2026-05-08 20:00 50.19642 8.10437 38110 ft 465 kts 252°
2026-05-08 20:01 50.17557 8.00877 38114 ft 465 kts 252°
2026-05-08 20:01 50.15463 7.91320 38111 ft 465 kts 252°
2026-05-08 20:02 50.13372 7.81820 38120 ft 465 kts 252°
2026-05-08 20:02 50.11260 7.72271 38124 ft 466 kts 252°
2026-05-08 20:03 50.09141 7.62731 38116 ft 466 kts 251°
2026-05-08 20:03 50.07008 7.53173 38126 ft 466 kts 251°
2026-05-08 20:04 50.05232 7.45248 38126 ft 466 kts 251°
2026-05-08 20:04 50.03086 7.35710 38133 ft 466 kts 251°
2026-05-08 20:05 50.00944 7.26237 38130 ft 467 kts 251°
2026-05-08 20:05 49.98783 7.16719 38128 ft 467 kts 251°
2026-05-08 20:06 49.96609 7.07186 38131 ft 467 kts 251°
2026-05-08 20:06 49.94427 6.97662 38119 ft 467 kts 251°
2026-05-08 20:07 49.92256 6.88230 38092 ft 467 kts 251°
2026-05-08 20:07 49.90062 6.78736 38079 ft 467 kts 251°
2026-05-08 20:08 49.87860 6.69253 38104 ft 467 kts 251°
2026-05-08 20:08 49.85650 6.59772 38100 ft 467 kts 251°
2026-05-08 20:09 49.83438 6.50317 38107 ft 467 kts 251°
2026-05-08 20:09 49.81271 6.40837 38097 ft 466 kts 255°
2026-05-08 20:10 49.79539 6.31168 38105 ft 466 kts 256°
2026-05-08 20:10 49.77865 6.21551 38104 ft 466 kts 256°
2026-05-08 20:11 49.76156 6.11890 38107 ft 466 kts 256°
2026-05-08 20:11 49.74422 6.02225 38101 ft 466 kts 256°
2026-05-08 20:12 49.72678 5.92577 38101 ft 466 kts 256°
2026-05-08 20:12 49.70926 5.82933 38101 ft 465 kts 256°
2026-05-08 20:13 49.69169 5.73306 38099 ft 465 kts 256°
2026-05-08 20:13 49.67419 5.63765 38100 ft 465 kts 256°
2026-05-08 20:14 49.65643 5.54137 38042 ft 466 kts 256°
2026-05-08 20:14 49.64751 5.49315 37631 ft 465 kts 256°
2026-05-08 20:14 49.63868 5.44557 37223 ft 457 kts 256°
2026-05-08 20:15 49.62997 5.39879 36823 ft 450 kts 256°
2026-05-08 20:15 49.62127 5.35270 36442 ft 445 kts 255°
2026-05-08 20:15 49.61182 5.30792 36061 ft 443 kts 254°
2026-05-08 20:15 49.60193 5.26298 35673 ft 442 kts 255°
2026-05-08 20:16 49.59303 5.21774 35251 ft 440 kts 259°
2026-05-08 20:16 49.58714 5.17173 34849 ft 436 kts 266°
2026-05-08 20:16 49.58366 5.12535 34461 ft 434 kts 268°
2026-05-08 20:16 49.58037 5.07909 34065 ft 434 kts 268°
2026-05-08 20:17 49.57706 5.03276 33596 ft 436 kts 268°
2026-05-08 20:17 49.57367 4.98600 33144 ft 441 kts 268°
2026-05-08 20:17 49.57016 4.93878 32707 ft 446 kts 268°
2026-05-08 20:17 49.56651 4.89117 32267 ft 449 kts 268°
2026-05-08 20:18 49.56278 4.84330 31831 ft 450 kts 268°
2026-05-08 20:18 49.55905 4.79610 31412 ft 451 kts 268°
2026-05-08 20:18 49.55525 4.74807 30986 ft 451 kts 268°
2026-05-08 20:18 49.55143 4.70007 30561 ft 451 kts 268°
2026-05-08 20:19 49.54762 4.65218 30143 ft 451 kts 268°
2026-05-08 20:19 49.54377 4.60401 29651 ft 450 kts 268°
2026-05-08 20:19 49.53957 4.55629 29172 ft 449 kts 266°
2026-05-08 20:19 49.53478 4.50952 28703 ft 447 kts 265°
2026-05-08 20:20 49.52967 4.46236 28236 ft 444 kts 265°
2026-05-08 20:20 49.52455 4.41558 27777 ft 441 kts 264°
2026-05-08 20:20 49.51951 4.36914 27327 ft 438 kts 264°
2026-05-08 20:20 49.51461 4.32311 26884 ft 435 kts 264°
2026-05-08 20:21 49.50976 4.27717 26439 ft 432 kts 264°
2026-05-08 20:21 49.50496 4.23175 26011 ft 429 kts 264°
2026-05-08 20:21 49.50018 4.18658 25596 ft 427 kts 264°
2026-05-08 20:21 49.49541 4.14185 25157 ft 420 kts 263°
2026-05-08 20:22 49.49069 4.09781 24746 ft 414 kts 263°
2026-05-08 20:22 49.48606 4.05484 24346 ft 409 kts 263°
2026-05-08 20:22 49.48143 4.01188 23943 ft 404 kts 263°
2026-05-08 20:22 49.47683 3.96947 23529 ft 399 kts 263°
2026-05-08 20:23 49.47227 3.92751 23053 ft 395 kts 263°
2026-05-08 20:23 49.46775 3.88602 22590 ft 391 kts 263°
2026-05-08 20:23 49.46327 3.84502 22132 ft 388 kts 262°
2026-05-08 20:23 49.45879 3.80424 21681 ft 384 kts 262°
2026-05-08 20:24 49.45434 3.76390 21240 ft 380 kts 262°
2026-05-08 20:24 49.44992 3.72393 20817 ft 377 kts 262°
2026-05-08 20:24 49.44557 3.68480 20382 ft 374 kts 261°
2026-05-08 20:24 49.44121 3.64562 19954 ft 371 kts 261°
2026-05-08 20:25 49.43685 3.60658 19540 ft 368 kts 261°
2026-05-08 20:25 49.43254 3.56802 19130 ft 365 kts 261°
2026-05-08 20:25 49.42825 3.52966 18725 ft 363 kts 260°
2026-05-08 20:25 49.42396 3.49155 18312 ft 361 kts 260°
2026-05-08 20:26 49.41957 3.45367 17881 ft 357 kts 257°
2026-05-08 20:26 49.41267 3.41790 17482 ft 352 kts 249°
2026-05-08 20:26 49.40352 3.38319 17090 ft 350 kts 246°
2026-05-08 20:26 49.39381 3.34913 16706 ft 347 kts 246°
2026-05-08 20:27 49.38414 3.31532 16323 ft 345 kts 246°
2026-05-08 20:27 49.37462 3.28157 15938 ft 343 kts 246°
2026-05-08 20:27 49.36530 3.24799 15563 ft 341 kts 247°
2026-05-08 20:27 49.35613 3.21457 15196 ft 339 kts 247°
2026-05-08 20:28 49.34705 3.18126 14831 ft 337 kts 247°
2026-05-08 20:28 49.33805 3.14808 14478 ft 336 kts 247°
2026-05-08 20:28 49.32913 3.11511 14112 ft 334 kts 247°
2026-05-08 20:28 49.32022 3.08224 13733 ft 333 kts 247°
2026-05-08 20:29 49.31138 3.04960 13333 ft 331 kts 247°
2026-05-08 20:29 49.30256 3.01711 12926 ft 327 kts 247°
2026-05-08 20:29 49.29388 2.98512 12539 ft 323 kts 247°
2026-05-08 20:29 49.28539 2.95393 12159 ft 318 kts 247°
2026-05-08 20:30 49.27691 2.92279 11765 ft 314 kts 247°
2026-05-08 20:30 49.26856 2.89218 11390 ft 310 kts 247°
2026-05-08 20:30 49.26032 2.86198 11098 ft 303 kts 247°
2026-05-08 20:30 49.25240 2.83300 11065 ft 288 kts 247°
2026-05-08 20:31 49.24489 2.80555 11064 ft 285 kts 247°
2026-05-08 20:31 49.23722 2.77757 11073 ft 285 kts 247°
2026-05-08 20:31 49.22955 2.74962 11080 ft 285 kts 247°
2026-05-08 20:31 49.22194 2.72191 11092 ft 286 kts 247°
2026-05-08 20:32 49.21412 2.69345 11086 ft 287 kts 247°
2026-05-08 20:32 49.20647 2.66564 11076 ft 287 kts 247°
2026-05-08 20:32 49.19870 2.63746 11075 ft 288 kts 247°
2026-05-08 20:32 49.19090 2.60922 11073 ft 288 kts 247°
2026-05-08 20:33 49.18322 2.58104 11070 ft 285 kts 250°
2026-05-08 20:33 49.17953 2.55130 10846 ft 290 kts 268°
2026-05-08 20:33 49.17930 2.52021 10498 ft 293 kts 269°
2026-05-08 20:33 49.17899 2.48913 10137 ft 291 kts 269°
2026-05-08 20:34 49.17851 2.45830 9752 ft 288 kts 268°
2026-05-08 20:34 49.17791 2.42790 9349 ft 285 kts 268°
2026-05-08 20:34 49.17659 2.36806 8564 ft 282 kts 268°
2026-05-08 20:35 49.17589 2.33825 8184 ft 280 kts 267°
2026-05-08 20:35 49.17517 2.30855 7799 ft 278 kts 267°
2026-05-08 20:35 49.17441 2.27906 7419 ft 276 kts 267°
2026-05-08 20:35 49.17359 2.24987 7107 ft 274 kts 266°
2026-05-08 20:36 49.17266 2.22082 7083 ft 274 kts 266°
2026-05-08 20:36 49.17171 2.19166 7084 ft 275 kts 266°
2026-05-08 20:36 49.17075 2.16252 7076 ft 275 kts 266°
2026-05-08 20:36 49.16981 2.13364 7073 ft 275 kts 266°
2026-05-08 20:37 49.16809 2.10487 7064 ft 269 kts 255°
2026-05-08 20:37 49.15944 2.07966 7077 ft 270 kts 227°
2026-05-08 20:37 49.14544 2.06024 7084 ft 275 kts 218°
2026-05-08 20:37 49.13019 2.04221 7082 ft 276 kts 217°
2026-05-08 20:38 49.11430 2.02742 7065 ft 269 kts 199°
2026-05-08 20:38 49.09636 2.02264 7070 ft 257 kts 184°
2026-05-08 20:38 49.07870 2.02138 6869 ft 250 kts 182°
2026-05-08 20:38 49.06151 2.02067 6598 ft 244 kts 182°
2026-05-08 20:39 49.04460 2.02002 6229 ft 243 kts 181°
2026-05-08 20:39 49.02792 2.01933 6075 ft 236 kts 181°
2026-05-08 20:39 49.01145 2.01863 5986 ft 239 kts 181°
2026-05-08 20:39 48.99495 2.02214 5581 ft 244 kts 156°
2026-05-08 20:40 48.98182 2.03764 5219 ft 244 kts 126°
2026-05-08 20:40 48.97402 2.05995 5005 ft 233 kts 114°
2026-05-08 20:40 48.96861 2.08298 4995 ft 232 kts 99°
2026-05-08 20:40 48.96866 2.10766 5008 ft 234 kts 86°
2026-05-08 20:41 48.96995 2.13241 4999 ft 234 kts 86°
2026-05-08 20:41 48.97126 2.15706 4987 ft 230 kts 86°
2026-05-08 20:41 48.97252 2.18020 4993 ft 212 kts 86°
2026-05-08 20:41 48.97366 2.20146 4986 ft 193 kts 86°
2026-05-08 20:42 48.97475 2.22209 4755 ft 198 kts 86°
2026-05-08 20:42 48.97587 2.24310 4509 ft 198 kts 86°
2026-05-08 20:42 48.97695 2.26355 4256 ft 190 kts 86°
2026-05-08 20:42 48.97801 2.28345 3987 ft 187 kts 86°
2026-05-08 20:43 48.97904 2.30295 3740 ft 183 kts 86°
2026-05-08 20:43 48.98005 2.32212 3492 ft 180 kts 85°
2026-05-08 20:43 48.98105 2.34095 3265 ft 181 kts 85°
2026-05-08 20:43 48.98206 2.36012 3021 ft 181 kts 85°
2026-05-08 20:44 48.98307 2.37918 2774 ft 179 kts 85°
2026-05-08 20:44 48.98407 2.39802 2531 ft 177 kts 85°
2026-05-08 20:44 48.98505 2.41657 2297 ft 173 kts 85°
2026-05-08 20:44 48.98598 2.43422 2072 ft 161 kts 85°
2026-05-08 20:45 48.98684 2.45037 1852 ft 145 kts 85°
2026-05-08 20:45 48.98734 2.46008 1740 ft 133 kts 84°
2026-05-08 20:45 48.98834 2.47876 1500 ft 135 kts 85°
2026-05-08 20:45 48.98909 2.49295 1328 ft 136 kts 85°
2026-05-08 20:46 48.98985 2.50719 1164 ft 134 kts 85°
2026-05-08 20:46 48.99058 2.52163 960 ft 139 kts 84°
2026-05-08 20:46 48.99134 2.53643 800 ft 141 kts 83°
2026-05-08 20:46 48.99217 2.55084 583 ft 136 kts 84°
2026-05-08 20:47 48.99289 2.56509 411 ft 135 kts 83°
2026-05-08 20:47 48.99367 2.57883 362 ft 119 kts 88°
2026-05-08 20:47 48.99417 2.58856 361 ft 65 kts 85°
2026-05-08 20:47 48.99489 2.59321 366 ft 24 kts 66°
2026-05-08 20:48 48.99527 2.59450 364 ft 12 kts 66°
2026-05-08 20:48 48.99563 2.59568 364 ft 12 kts 64°
2026-05-08 20:48 48.99608 2.59676 362 ft 12 kts 39°
2026-05-08 20:48 48.99691 2.59688 361 ft 12 kts 356°
2026-05-08 20:49 48.99776 2.59678 364 ft 13 kts 356°
2026-05-08 20:49 48.99869 2.59666 358 ft 13 kts 354°
2026-05-08 20:49 48.99917 2.59659 364 ft 0 kts 355°
2026-05-08 20:49 48.99924 2.59658 364 ft 2 kts 355°
2026-05-08 20:50 48.99942 2.59656 360 ft 3 kts 355°
2026-05-08 20:50 48.99967 2.59653 361 ft 4 kts 355°
2026-05-08 20:50 49.00000 2.59648 364 ft 5 kts 355°
2026-05-08 20:50 49.00040 2.59642 366 ft 6 kts 354°
2026-05-08 20:51 49.00073 2.59603 365 ft 6 kts 295°
2026-05-08 20:51 49.00076 2.59531 363 ft 7 kts 265°
2026-05-08 20:51 49.00072 2.59445 364 ft 9 kts 265°
2026-05-08 20:51 49.00067 2.59346 363 ft 10 kts 265°
2026-05-08 20:52 49.00061 2.59226 365 ft 13 kts 265°
2026-05-08 20:52 49.00054 2.59104 363 ft 7 kts 265°
2026-05-08 20:52 49.00051 2.59030 364 ft 8 kts 265°
2026-05-08 20:52 49.00046 2.58942 365 ft 9 kts 265°
2026-05-08 20:53 49.00041 2.58841 359 ft 10 kts 265°
2026-05-08 20:53 49.00034 2.58722 359 ft 12 kts 265°
2026-05-08 20:53 49.00027 2.58583 359 ft 14 kts 265°
2026-05-08 20:53 49.00019 2.58425 362 ft 16 kts 265°
2026-05-08 20:54 49.00012 2.58311 364 ft 17 kts 264°
2026-05-08 20:54 48.99997 2.58037 359 ft 22 kts 266°
2026-05-08 20:54 48.99986 2.57786 365 ft 25 kts 264°
2026-05-08 20:54 48.99974 2.57606 365 ft 25 kts 264°
2026-05-08 20:55 48.99960 2.57343 363 ft 25 kts 265°
2026-05-08 20:55 48.99947 2.57078 364 ft 25 kts 265°
2026-05-08 20:55 48.99931 2.56811 359 ft 25 kts 265°
2026-05-08 20:55 48.99916 2.56545 365 ft 25 kts 265°
2026-05-08 20:56 48.99902 2.56279 365 ft 25 kts 265°
2026-05-08 20:56 48.99890 2.56038 359 ft 20 kts 265°
2026-05-08 20:56 48.99907 2.55854 364 ft 12 kts 284°
2026-05-08 20:56 48.99928 2.55739 360 ft 10 kts 292°
2026-05-08 20:57 48.99986 2.55670 358 ft 11 kts 336°
2026-05-08 20:57 49.00030 2.55586 364 ft 11 kts 263°
2026-05-08 20:57 48.99992 2.55485 364 ft 11 kts 246°
2026-05-08 20:57 48.99980 2.55366 358 ft 12 kts 265°
2026-05-08 20:58 48.99973 2.55230 363 ft 15 kts 265°
2026-05-08 20:58 48.99965 2.55056 358 ft 18 kts 265°
2026-05-08 20:58 48.99954 2.54844 359 ft 22 kts 265°
2026-05-08 20:58 48.99942 2.54599 362 ft 25 kts 265°
2026-05-08 20:59 48.99925 2.54333 361 ft 25 kts 266°
2026-05-08 20:59 48.99913 2.54081 363 ft 21 kts 266°
2026-05-08 20:59 48.99903 2.53897 364 ft 15 kts 265°
2026-05-08 20:59 48.99895 2.53764 358 ft 11 kts 265°
2026-05-08 21:00 48.99873 2.53683 367 ft 6 kts 217°
2026-05-08 21:00 48.99831 2.53668 364 ft 7 kts 193°
2026-05-08 21:00 48.99788 2.53629 367 ft 8 kts 219°
2026-05-08 21:00 48.99745 2.53570 362 ft 9 kts 220°
2026-05-08 21:01 48.99695 2.53507 365 ft 10 kts 220°
2026-05-08 21:01 48.99642 2.53438 365 ft 10 kts 220°
2026-05-08 21:01 48.99608 2.53357 364 ft 8 kts 241°
2026-05-08 21:01 48.99587 2.53325 356 ft 0 kts 213°
2026-05-08 21:02 48.99580 2.53318 364 ft 2 kts 212°
2026-05-08 21:02 48.99564 2.53306 365 ft 3 kts 208°
2026-05-08 21:02 48.99553 2.53277 365 ft 3 kts 255°
2026-05-08 21:02 48.99551 2.53236 361 ft 5 kts 268°
2026-05-08 21:03 48.99550 2.53180 356 ft 4 kts 267°
2026-05-08 21:03 48.99550 2.53177 356 ft 0 kts 267°